Вернуться в каталог

STARLINK-3244

АктивенСвязьVLEO
NORAD 49741·PAYLOAD·🇺🇸 United States

Запущен Dec 2, 2021 с Cape Canaveral Space Force Station

Loading…

Ближайшие Пролёты (ближайшие 24 часа)

TLE

СвежийSource: CelesTrak SupGP

Эпоха: Sep 15, 2026, 01:09 UTC

1 49741C 21115T   26258.04840278 -.00022788  00000+0 -73293-3 0  2584
2 49741  53.1588   5.1696 0001316  76.6106 174.5203 15.31708107    17

Отслеживайте STARLINK-3244 в реальном времени с AllMySat

Download on the App Store